This is the latest recevied weather packets stored in our database for station/object KC7UNY-13. If no packets are shown the sender has not sent any weather packets the latest 10 day(s).
| Time | Temp. | Humidity | Pressure | Rain* | Wind** | Luminosity | Snow |
|---|---|---|---|---|---|---|---|
| 1777854105 | 35° C | 17% | 1006.5 hPa | 0 mm | - | 162 W/m² | - |
| 1777853803 | 35° C | 17% | 1006.7 hPa | 0 mm | - | 170 W/m² | - |
| 1777853498 | 35.56° C | 17% | 1006.4 hPa | 0 mm | - | 187 W/m² | - |
| 1777853196 | 35° C | 17% | 1006.6 hPa | 0 mm | - | 202 W/m² | - |
| 1777852894 | 35.56° C | 17% | 1006.4 hPa | 0 mm | - | 214 W/m² | - |
| 1777852591 | 35.56° C | 17% | 1006.5 hPa | 0 mm | - | 231 W/m² | - |
| 1777852287 | 36.11° C | 17% | 1006.6 hPa | 0 mm | - | 248 W/m² | - |
| 1777851986 | 36.11° C | 17% | 1006.4 hPa | 0 mm | - | 265 W/m² | - |
| 1777851684 | 36.11° C | 17% | 1006.4 hPa | 0 mm | - | 283 W/m² | - |
| 1777851381 | 36.67° C | 16% | 1006.5 hPa | 0 mm | - | 306 W/m² | - |
| 1777851076 | 36.11° C | 17% | 1006.6 hPa | 0 mm | - | 321 W/m² | - |
| 1777850773 | 35.56° C | 18% | 1006.3 hPa | 0 mm | - | 342 W/m² | - |
| 1777850470 | 35.56° C | 18% | 1006.7 hPa | 0 mm | - | 367 W/m² | - |
| 1777850168 | 36.11° C | 19% | 1006.7 hPa | 0 mm | - | 386 W/m² | - |
| 1777849864 | 36.11° C | 19% | 1006.7 hPa | 0 mm | - | 409 W/m² | - |
| 1777849561 | 36.11° C | 19% | 1006.8 hPa | 0 mm | - | 399 W/m² | - |
| 1777849259 | 36.67° C | 19% | 1006.8 hPa | 0 mm | - | 420 W/m² | - |
| 1777848955 | 36.11° C | 19% | 1006.9 hPa | 0 mm | - | 434 W/m² | - |
| 1777848651 | 35.56° C | 19% | 1007.1 hPa | 0 mm | - | 439 W/m² | - |
| 1777848348 | 36.11° C | 19% | 1007.2 hPa | 0 mm | - | 452 W/m² | - |
| 1777848046 | 35.56° C | 19% | 1007.3 hPa | 0 mm | - | 473 W/m² | - |
| 1777847744 | 35° C | 19% | 1007.4 hPa | 0 mm | - | 496 W/m² | - |
| 1777847439 | 35.56° C | 19% | 1007.5 hPa | 0 mm | - | 500 W/m² | - |
| 1777847137 | 35.56° C | 19% | 1007.5 hPa | 0 mm | - | 516 W/m² | - |
| 1777846835 | 35.56° C | 18% | 1007.6 hPa | 0 mm | - | 529 W/m² | - |
* Rain latest hour (hover to see other rain measurements)
** Current wind speed in m/s (hover to see current wind gust speed)